Date String (YYYY-MM-DD hh:mm:ss) UTC,Instrument flags,Ambient pressure (hPa),Sample flow (lpm),Bypass flow (lpm),Sample temperature (°C),Ambient temperature (°C),ASC tube jacket temperature (°C),LED temperature (°C),Box temperature (°C),Sample RH (%),Span deviation,Mass concentration (μg/m³),Mass concentration (μg/m³),Mass concentration (μg/m³)
DateTimeUTC,F1_M11,P_M11,Q1_M11,Q2_M11,T1_M11,T2_M11,T3_M11,T4_M11,T5_M11,U1_M11,ZSPAN_M11,X0_M11,X2_M11,X1_M11
2022-09-28 08:00:00,,0833.5,5.01,0.00,30.5,29.1,00.0,39.3,32.4,16.8,0000.0,0008.70,0003.42,0002.86
2022-09-28 08:01:00,,0833.5,4.99,0.00,30.6,29.1,00.0,39.3,32.4,16.7,0000.0,0008.59,0003.36,0002.81
2022-09-28 08:02:00,,0833.5,5.00,0.00,30.6,29.1,00.0,39.3,32.4,16.6,0000.0,0008.73,0003.29,0002.76
2022-09-28 08:03:00,,0833.5,5.00,0.00,30.6,29.1,00.0,39.3,32.4,16.6,0000.0,0009.24,0003.21,0002.69
2022-09-28 08:04:00,,0833.5,5.01,0.00,30.6,29.1,00.0,39.3,32.4,16.7,0000.0,0009.15,0003.17,0002.63
2022-09-28 08:05:00,,0833.6,4.99,0.00,30.6,29.1,00.0,39.3,32.4,16.9,0000.0,0008.45,0003.19,0002.61
2022-09-28 08:06:00,,0833.5,5.01,0.00,30.6,29.1,00.0,39.3,32.4,17.0,0000.0,0007.99,0003.18,0002.59
2022-09-28 08:07:00,,0833.5,4.99,0.00,30.6,29.1,00.0,39.3,32.4,17.0,0000.0,0007.71,0003.19,0002.57
2022-09-28 08:08:00,,0833.5,5.01,0.00,30.6,29.1,00.0,39.3,32.4,17.0,0000.0,0007.77,0003.19,0002.57
2022-09-28 08:09:00,,0833.5,4.99,0.00,30.6,29.1,00.0,39.3,32.4,17.1,0000.0,0008.49,0003.20,0002.59
2022-09-28 08:10:00,,0833.5,5.01,0.00,30.6,29.1,00.0,39.3,32.4,17.1,0000.0,0008.37,0003.24,0002.61
2022-09-28 08:11:00,,0833.5,4.99,0.00,30.6,29.1,00.0,39.3,32.4,17.2,0000.0,0008.41,0003.27,0002.63
2022-09-28 08:12:00,,0833.5,5.01,0.00,30.6,29.1,00.0,39.3,32.4,17.2,0000.0,0008.55,0003.33,0002.67
2022-09-28 08:13:00,,0833.5,4.99,0.00,30.6,29.1,00.0,39.3,32.4,17.2,0000.0,0008.40,0003.36,0002.71
2022-09-28 08:14:00,,0833.5,5.01,0.00,30.6,29.1,00.0,39.3,32.4,17.2,0000.0,0007.96,0003.40,0002.75
2022-09-28 08:15:00,,0833.6,5.01,0.00,30.6,29.1,00.0,39.3,32.4,17.3,0000.0,0008.12,0003.43,0002.81
2022-09-28 08:16:00,,0833.6,4.99,0.00,30.6,29.1,00.0,39.4,32.4,17.3,0000.0,0008.19,0003.45,0002.86
2022-09-28 08:17:00,,0833.6,5.01,0.00,30.6,29.1,00.0,39.4,32.5,17.4,0000.0,0008.45,0003.45,0002.88
2022-09-28 08:18:00,,0833.6,5.00,0.00,30.6,29.2,00.0,39.4,32.5,17.5,0000.0,0008.50,0003.44,0002.91
2022-09-28 08:19:00,,0833.5,5.01,0.00,30.6,29.2,00.0,39.4,32.5,17.4,0000.0,0008.75,0003.45,0002.92
2022-09-28 08:20:00,,0833.5,4.99,0.00,30.6,29.2,00.0,39.4,32.5,17.4,0000.0,0008.47,0003.47,0002.93
2022-09-28 08:21:00,,0833.5,5.01,0.00,30.6,29.2,00.0,39.4,32.5,17.6,0000.0,0009.38,0003.49,0002.95
2022-09-28 08:22:00,,0833.6,4.99,0.00,30.7,29.2,00.0,39.4,32.5,17.7,0000.0,0010.38,0003.49,0002.99
2022-09-28 08:23:00,,0833.5,5.00,0.00,30.7,29.2,00.0,39.4,32.5,17.5,0000.0,0011.21,0003.48,0003.00
2022-09-28 08:24:00,,0833.6,4.99,0.00,30.7,29.2,00.0,39.4,32.5,17.5,0000.0,0011.20,0003.47,0003.00
2022-09-28 08:25:00,,0833.5,5.01,0.00,30.7,29.2,00.0,39.4,32.5,17.8,0000.0,0010.97,0003.48,0003.00
2022-09-28 08:26:00,,0833.5,4.99,0.00,30.7,29.2,00.0,39.4,32.5,17.9,0000.0,0010.88,0003.48,0003.01
2022-09-28 08:27:00,,0833.5,5.01,0.00,30.7,29.3,00.0,39.4,32.5,17.7,0000.0,0010.79,0003.46,0002.99
2022-09-28 08:28:00,,0833.6,4.99,0.00,30.7,29.3,00.0,39.4,32.5,17.8,0000.0,0010.50,0003.46,0002.99
2022-09-28 08:29:00,,0833.6,5.01,0.00,30.7,29.3,00.0,39.4,32.5,17.8,0000.0,0011.21,0003.50,0002.99
2022-09-28 08:30:00,,0833.5,4.99,0.00,30.7,29.3,00.0,39.4,32.5,18.0,0000.0,0011.18,0003.53,0003.00
2022-09-28 08:31:00,,0833.6,5.00,0.00,30.7,29.3,00.0,39.4,32.5,18.2,0000.0,0011.74,0003.54,0003.00
2022-09-28 08:32:00,,0833.5,5.00,0.00,30.7,29.3,00.0,39.4,32.6,18.4,0000.0,0010.79,0003.55,0002.99
2022-09-28 08:33:00,,0833.6,5.01,0.00,30.7,29.3,00.0,39.4,32.5,18.4,0000.0,0009.78,0003.57,0002.99
2022-09-28 08:34:00,,0833.6,5.00,0.00,30.7,29.3,00.0,39.5,32.5,18.3,0000.0,0009.09,0003.62,0003.00
2022-09-28 08:35:00,,0833.6,5.01,0.00,30.7,29.2,00.0,39.5,32.6,18.3,0000.0,0009.45,0003.67,0003.03
2022-09-28 08:36:00,,0833.5,4.99,0.00,30.7,29.3,00.0,39.5,32.6,18.2,0000.0,0009.66,0003.68,0003.06
2022-09-28 08:37:00,,0833.6,5.00,0.00,30.7,29.3,00.0,39.5,32.6,18.2,0000.0,0010.36,0003.72,0003.07
2022-09-28 08:38:00,,0833.5,4.99,0.00,30.8,29.2,00.0,39.5,32.6,18.1,0000.0,0011.23,0003.78,0003.08
2022-09-28 08:39:00,,0833.5,5.01,0.00,30.7,29.2,00.0,39.5,32.5,18.0,0000.0,0011.83,0003.84,0003.09
2022-09-28 08:40:00,,0833.5,5.01,0.00,30.7,29.3,00.0,39.5,32.6,18.0,0000.0,0011.44,0003.87,0003.11
2022-09-28 08:41:00,,0833.4,4.99,0.00,30.8,29.3,00.0,39.5,32.6,18.0,0000.0,0012.06,0003.89,0003.11
2022-09-28 08:42:00,,0833.5,5.00,0.00,30.8,29.2,00.0,39.5,32.6,17.9,0000.0,0011.16,0003.88,0003.12
2022-09-28 08:43:00,,0833.5,5.02,0.00,30.8,29.2,00.0,39.5,32.5,18.0,0000.0,0011.14,0003.89,0003.12
2022-09-28 08:44:00,,0833.4,4.99,0.00,30.7,29.2,00.0,39.5,32.5,18.0,0000.0,0011.28,0003.88,0003.11
2022-09-28 08:45:00,,0833.4,5.01,0.00,30.8,29.2,00.0,39.5,32.6,17.9,0000.0,0011.53,0003.90,0003.10
2022-09-28 08:46:00,,0833.4,5.00,0.00,30.8,29.2,00.0,39.5,32.6,17.8,0000.0,0011.58,0003.93,0003.10
2022-09-28 08:47:00,,0833.4,5.01,0.00,30.8,29.2,00.0,39.5,32.5,17.9,0000.0,0011.51,0003.93,0003.10
2022-09-28 08:48:00,,0833.4,5.00,0.00,30.7,29.2,00.0,39.5,32.5,17.7,0000.0,0010.75,0003.91,0003.11
2022-09-28 08:49:00,,0833.4,4.99,0.00,30.8,29.2,00.0,39.5,32.5,17.3,0000.0,0009.96,0003.86,0003.09
2022-09-28 08:50:00,,0833.4,5.00,0.00,30.7,29.2,00.0,39.5,32.5,17.2,0000.0,0009.52,0003.81,0003.06
2022-09-28 08:51:00,,0833.4,5.01,0.00,30.7,29.2,00.0,39.5,32.5,17.2,0000.0,0009.33,0003.75,0003.02
2022-09-28 08:52:00,,0833.4,4.99,0.00,30.8,29.2,00.0,39.5,32.5,17.2,0000.0,0008.39,0003.69,0002.99
2022-09-28 08:53:00,,0833.4,5.01,0.00,30.7,29.2,00.0,39.5,32.5,17.3,0000.0,0008.09,0003.64,0002.97
2022-09-28 08:54:00,,0833.3,4.99,0.00,30.7,29.2,00.0,39.5,32.5,17.2,0000.0,0008.36,0003.62,0002.94
2022-09-28 08:55:00,,0833.3,5.01,0.00,30.7,29.2,00.0,39.5,32.5,17.3,0000.0,0008.22,0003.57,0002.91
2022-09-28 08:56:00,,0833.3,5.00,0.00,30.7,29.2,00.0,39.5,32.5,17.6,0000.0,0007.82,0003.52,0002.88
2022-09-28 08:57:00,,0833.3,5.00,0.00,30.8,29.2,00.0,39.5,32.5,17.7,0000.0,0007.68,0003.51,0002.90
2022-09-28 08:58:00,,0833.2,5.01,0.00,30.7,29.2,00.0,39.5,32.5,17.8,0000.0,0008.01,0003.51,0002.90
2022-09-28 08:59:00,,0833.2,4.99,0.00,30.7,29.2,00.0,39.5,32.5,17.9,0000.0,0009.05,0003.51,0002.87
